�N����,����,�~����,�C��,���x,�C��,����,���ϕ���,�ő�u�ԕ���,�ő厞����,���˗�,�I�_���x,�n�����x,�ő啗���N��,DTYPE
"22/10/20","00:10",0.0,10.2,87.8,1018.5,317.4,1.8,2.5,309.2,0.00,8.3,17.6,"00:09:12",1
"22/10/20","00:20",0.0,10.3,87.7,1018.5,321.7,2.0,2.6,318.8,0.00,8.4,17.4,"00:17:28",1
"22/10/20","00:30",0.0,10.3,87.4,1018.5,327.0,2.0,2.6,315.7,0.00,8.3,17.4,"00:26:24",1
"22/10/20","00:40",0.0,10.3,87.1,1018.7,323.6,2.0,2.9,340.6,0.00,8.3,17.1,"00:33:36",1
"22/10/20","00:50",0.0,10.3,86.9,1019.0,327.3,1.8,2.5,326.3,0.00,8.3,17.2,"00:45:20",1
"22/10/20","01:00",0.0,10.3,86.7,1018.7,326.4,1.8,2.8,326.0,0.00,8.2,17.2,"00:52:24",1
"22/10/20","01:10",0.0,10.3,86.6,1018.5,320.1,1.8,2.8,339.3,0.00,8.2,17.1,"01:01:52",1
"22/10/20","01:20",0.0,10.2,86.7,1018.5,323.4,1.8,2.7,329.4,0.00,8.1,17.2,"01:19:28",1
"22/10/20","01:30",0.0,10.3,86.8,1018.7,322.4,2.3,3.6,317.3,0.00,8.2,16.9,"01:27:52",1
"22/10/20","01:40",0.0,10.5,86.7,1018.5,327.6,2.6,3.9,324.1,0.00,8.4,17.2,"01:30:16",1
"22/10/20","01:50",0.0,10.4,86.6,1019.2,333.3,1.7,3.1,341.0,0.00,8.3,17.0,"01:42:56",1
"22/10/20","02:00",0.0,10.6,86.4,1019.2,340.4,1.7,2.7,337.9,0.00,8.5,17.0,"01:53:44",1
"22/10/20","02:10",0.0,10.5,86.2,1019.0,330.2,1.8,2.9,338.5,0.00,8.3,16.8,"02:05:04",1
"22/10/20","02:20",0.0,10.4,86.1,1019.4,333.0,1.3,2.7,344.9,0.00,8.2,17.0,"02:11:44",1
"22/10/20","02:30",0.0,10.3,86.2,1019.4,329.7,1.5,2.8,322.4,0.00,8.1,17.0,"02:24:32",1
"22/10/20","02:40",0.0,10.2,86.4,1019.4,318.6,2.0,3.3,338.0,0.00,8.1,16.9,"02:35:44",1
"22/10/20","02:50",0.0,10.2,86.7,1019.4,321.3,2.3,3.9,333.4,0.00,8.1,16.8,"02:48:16",1
"22/10/20","03:00",0.0,10.5,86.5,1019.4,331.1,2.7,4.4,325.6,0.00,8.4,16.8,"02:52:08",1
"22/10/20","03:10",0.0,10.5,86.4,1019.4,332.2,3.0,4.1,331.1,0.00,8.4,16.7,"03:00:56",1
"22/10/20","03:20",0.0,10.5,86.5,1019.2,332.1,3.0,4.8,325.0,0.00,8.4,16.9,"03:18:48",1
"22/10/20","03:30",0.0,10.5,86.7,1019.4,329.8,2.7,4.4,321.7,0.00,8.4,16.9,"03:20:02",1
"22/10/20","03:40",0.0,10.4,86.8,1019.9,336.6,2.5,4.4,332.7,0.00,8.3,16.8,"03:35:28",1
"22/10/20","03:50",0.0,10.2,87.2,1019.9,333.1,2.5,4.3,336.3,0.00,8.2,16.7,"03:47:20",1
"22/10/20","04:00",0.0,10.1,87.6,1019.4,332.5,2.0,3.2,331.1,0.00,8.2,16.9,"03:50:08",1
"22/10/20","04:10",0.0,10.0,88.0,1019.7,332.8,2.5,3.5,338.6,0.00,8.1,16.7,"04:01:36",1
"22/10/20","04:20",0.0,9.9,88.4,1019.4,329.9,2.6,3.6,333.6,0.00,8.1,16.7,"04:17:12",1
"22/10/20","04:30",0.0,10.0,88.8,1019.9,331.8,2.8,4.5,339.1,0.00,8.3,16.6,"04:26:32",1
"22/10/20","04:40",0.0,10.1,88.9,1019.9,330.7,2.3,3.4,334.8,0.00,8.4,16.7,"04:38:00",1
"22/10/20","04:50",0.0,10.1,89.0,1019.9,333.8,2.2,3.3,341.3,0.00,8.4,16.4,"04:40:08",1
"22/10/20","05:00",0.0,10.0,89.0,1020.1,329.6,2.2,3.5,342.3,0.00,8.3,16.5,"04:59:20",1
"22/10/20","05:10",0.0,9.8,89.1,1020.4,318.2,2.1,3.5,330.9,0.00,8.1,16.6,"05:03:36",1
"22/10/20","05:20",0.0,9.7,89.4,1020.1,322.6,2.1,3.3,322.1,0.00,8.1,16.5,"05:15:52",1
"22/10/20","05:30",0.0,9.4,89.6,1020.6,320.4,1.7,3.2,316.7,0.00,7.8,16.6,"05:23:12",1
"22/10/20","05:40",0.0,9.1,89.8,1020.4,299.4,0.8,1.6,321.3,0.00,7.6,16.5,"05:30:16",1
"22/10/20","05:50",0.0,8.7,90.2,1020.1,301.5,1.3,2.2,321.4,0.00,7.2,16.4,"05:49:04",1
"22/10/20","06:00",0.0,8.7,90.7,1020.6,321.1,1.8,3.6,342.7,0.00,7.3,16.3,"05:50:48",1
"22/10/20","06:10",0.0,8.6,91.1,1020.6,302.7,0.8,2.1,320.5,0.00,7.3,16.3,"06:01:04",1
"22/10/20","06:20",0.0,8.5,91.4,1020.8,294.2,1.5,2.2,319.8,0.00,7.2,16.4,"06:17:44",1
"22/10/20","06:30",0.0,8.4,91.7,1020.6,296.4,1.0,2.1,321.0,0.00,7.2,16.2,"06:25:28",1
"22/10/20","06:40",0.0,8.1,91.9,1020.4,289.6,1.0,1.3,306.7,0.00,6.9,16.3,"06:39:04",1
"22/10/20","06:50",0.0,8.0,92.3,1020.4,280.4,0.8,1.4,321.2,0.00,6.9,16.2,"06:43:12",1
"22/10/20","07:00",0.0,7.9,92.4,1020.8,290.1,0.8,1.6,302.9,0.00,6.8,16.4,"06:55:20",1
"22/10/20","07:10",0.0,7.8,92.8,1021.1,280.4,1.2,1.7,310.9,0.00,6.7,16.3,"07:02:32",1
"22/10/20","07:20",0.0,8.5,93.1,1021.1,287.2,0.6,1.1,287.9,0.00,7.5,16.2,"07:15:20",1
"22/10/20","07:30",0.0,9.4,93.2,1021.1,281.5,0.7,2.5,322.5,0.00,8.4,16.0,"07:28:08",1
"22/10/20","07:40",0.0,10.2,93.2,1021.3,235.4,0.3,1.2,285.1,0.01,9.2,16.4,"07:30:08",1
"22/10/20","07:50",0.0,11.0,93.1,1021.1,298.3,0.7,1.7,323.8,0.03,10.0,16.2,"07:47:12",1
"22/10/20","08:00",0.0,11.7,92.7,1021.8,299.2,0.6,1.2,332.0,0.05,10.6,16.1,"07:51:36",1
"22/10/20","08:10",0.0,12.2,91.1,1022.0,266.6,0.6,1.3,316.7,0.07,10.8,15.9,"08:01:12",1
"22/10/20","08:20",0.0,12.6,90.5,1021.8,230.0,0.3,0.8,245.4,0.10,11.1,15.8,"08:10:16",1
"22/10/20","08:30",0.0,13.4,89.5,1022.5,268.1,0.5,1.0,326.8,0.12,11.8,16.0,"08:25:20",1
"22/10/20","08:40",0.0,13.9,86.9,1023.2,268.0,0.3,1.2,228.0,0.15,11.8,15.7,"08:30:02",1
"22/10/20","08:50",0.0,14.1,83.8,1022.7,268.3,0.7,1.8,225.1,0.17,11.4,16.0,"08:40:48",1
"22/10/20","09:00",0.0,14.7,81.0,1023.0,289.1,0.5,0.8,237.9,0.20,11.5,16.0,"08:52:48",1
"22/10/20","09:10",0.0,15.3,78.1,1023.2,172.1,0.5,1.2,244.5,0.23,11.5,16.2,"09:01:44",1
"22/10/20","09:20",0.0,15.8,76.0,1022.7,93.0,0.6,1.4,124.8,0.25,11.6,16.2,"09:12:56",1
"22/10/20","09:30",0.0,16.1,73.9,1022.7,232.8,0.7,1.8,230.3,0.28,11.5,16.3,"09:26:40",1
"22/10/20","09:40",0.0,16.4,72.1,1022.7,260.8,0.7,1.8,244.5,0.30,11.4,16.0,"09:38:00",1
"22/10/20","09:50",0.0,16.8,70.6,1022.7,156.7,0.7,1.7,230.4,0.32,11.5,16.1,"09:48:16",1
"22/10/20","10:00",0.0,16.9,68.9,1022.3,233.1,1.1,3.1,237.9,0.34,11.2,16.2,"09:54:24",1
"22/10/20","10:10",0.0,17.5,68.2,1022.3,174.4,0.6,1.8,117.3,0.36,11.6,16.2,"10:06:48",1
"22/10/20","10:20",0.0,18.3,66.4,1022.3,182.7,0.5,1.3,191.5,0.38,12.0,16.2,"10:10:24",1
"22/10/20","10:30",0.0,18.6,66.2,1022.0,185.5,0.7,2.0,233.5,0.40,12.2,16.2,"10:21:52",1
"22/10/20","10:40",0.0,18.9,63.9,1022.0,203.4,0.8,2.1,208.4,0.41,12.0,16.4,"10:34:08",1
"22/10/20","10:50",0.0,19.7,60.6,1021.8,56.8,0.6,2.1,141.5,0.42,11.9,16.3,"10:42:48",1
"22/10/20","11:00",0.0,19.9,59.7,1021.8,152.3,0.8,2.5,125.4,0.44,11.9,16.4,"10:58:40",1
"22/10/20","11:10",0.0,20.4,58.4,1021.3,205.2,0.6,2.1,146.4,0.45,12.0,16.5,"11:06:24",1
"22/10/20","11:20",0.0,20.5,57.4,1021.1,133.0,0.8,1.9,115.0,0.46,11.8,16.6,"11:15:20",1
"22/10/20","11:30",0.0,21.2,56.7,1021.1,165.3,0.8,2.1,198.2,0.47,12.3,16.7,"11:24:00",1
"22/10/20","11:40",0.0,21.0,53.2,1020.6,30.8,1.0,3.5,52.9,0.47,11.2,16.7,"11:33:36",1
"22/10/20","11:50",0.0,21.4,52.1,1020.6,9.2,1.0,2.5,357.7,0.48,11.2,16.8,"11:43:04",1
"22/10/20","12:00",0.0,21.6,52.0,1020.1,137.0,0.8,2.0,114.7,0.49,11.4,17.0,"11:54:24",1
"22/10/20","12:10",0.0,21.6,52.3,1020.4,144.4,1.1,2.9,99.2,0.49,11.5,17.0,"12:09:04",1
"22/10/20","12:20",0.0,21.6,51.7,1019.9,195.8,1.0,3.5,205.1,0.49,11.3,17.0,"12:12:16",1
"22/10/20","12:30",0.0,22.4,50.8,1019.7,172.7,0.6,1.9,246.5,0.49,11.8,17.3,"12:29:52",1
"22/10/20","12:40",0.0,21.6,52.3,1019.7,222.0,2.0,4.4,211.3,0.49,11.5,17.4,"12:32:16",1
"22/10/20","12:50",0.0,21.7,53.5,1019.4,217.0,1.8,3.9,227.8,0.49,11.9,17.5,"12:42:24",1
"22/10/20","13:00",0.0,21.7,52.2,1019.7,235.9,2.1,4.1,226.6,0.50,11.5,17.6,"12:57:52",1
"22/10/20","13:10",0.0,22.0,52.0,1019.4,240.5,1.6,3.3,212.1,0.51,11.7,17.5,"13:03:52",1
"22/10/20","13:20",0.0,22.4,50.9,1019.2,240.5,1.6,3.6,235.0,0.51,11.8,17.6,"13:18:32",1
"22/10/20","13:30",0.0,22.2,52.2,1019.4,240.2,2.2,5.5,213.0,0.47,12.0,17.7,"13:28:00",1
"22/10/20","13:40",0.0,22.2,49.6,1019.2,276.2,1.8,4.5,240.6,0.47,11.2,17.8,"13:30:48",1
"22/10/20","13:50",0.0,22.7,48.4,1018.7,291.3,1.3,3.1,336.2,0.46,11.3,18.1,"13:48:48",1
"22/10/20","14:00",0.0,22.9,49.1,1018.7,278.7,1.7,3.9,240.8,0.43,11.7,18.0,"13:58:48",1
"22/10/20","14:10",0.0,22.6,48.6,1018.7,271.6,1.6,4.4,357.2,0.38,11.3,18.2,"14:07:36",1
"22/10/20","14:20",0.0,22.7,47.9,1018.7,251.6,1.7,4.5,231.8,0.40,11.1,18.2,"14:18:40",1
"22/10/20","14:30",0.0,22.8,48.1,1018.5,242.6,1.7,4.8,232.3,0.37,11.3,18.4,"14:29:12",1
"22/10/20","14:40",0.0,22.6,48.2,1018.7,216.7,2.2,4.9,233.6,0.35,11.1,18.6,"14:39:44",1
"22/10/20","14:50",0.0,22.9,48.1,1018.5,266.3,1.7,4.9,235.6,0.33,11.4,18.3,"14:44:48",1
"22/10/20","15:00",0.0,23.1,47.1,1018.7,285.9,1.6,4.0,228.1,0.31,11.3,18.7,"14:51:44",1
"22/10/20","15:10",0.0,22.9,45.8,1018.5,272.8,1.7,4.2,236.5,0.29,10.7,18.7,"15:03:12",1
"22/10/20","15:20",0.0,22.9,45.4,1018.5,325.9,1.7,2.9,340.8,0.27,10.5,18.7,"15:12:40",1
"22/10/20","15:30",0.0,22.7,48.4,1018.5,335.9,1.8,4.4,323.8,0.24,11.3,18.7,"15:22:00",1
"22/10/20","15:40",0.0,22.2,49.4,1018.7,333.9,2.2,3.9,327.0,0.22,11.2,18.7,"15:39:28",1
"22/10/20","15:50",0.0,22.4,49.7,1019.0,345.5,2.1,4.1,320.9,0.19,11.4,18.9,"15:40:32",1
"22/10/20","16:00",0.0,22.1,49.2,1019.0,342.5,2.3,5.2,331.3,0.17,11.0,18.8,"15:54:00",1
"22/10/20","16:10",0.0,21.8,50.6,1019.0,343.3,2.2,4.5,342.8,0.14,11.1,18.7,"16:05:52",1
"22/10/20","16:20",0.0,21.6,51.2,1019.2,336.1,2.2,5.1,346.8,0.12,11.1,18.9,"16:10:08",1
"22/10/20","16:30",0.0,21.4,51.6,1019.0,337.2,2.3,4.0,349.9,0.09,11.1,19.0,"16:26:24",1
"22/10/20","16:40",0.0,21.1,52.1,1019.0,339.8,2.3,4.0,342.8,0.07,10.9,19.0,"16:38:32",1
"22/10/20","16:50",0.0,20.8,53.3,1019.2,342.8,2.2,4.0,330.4,0.05,11.0,19.0,"16:49:20",1
"22/10/20","17:00",0.0,20.5,54.4,1019.7,343.7,1.8,3.1,343.8,0.03,11.0,19.3,"16:51:44",1
"22/10/20","17:10",0.0,20.0,55.1,1019.4,335.3,2.3,4.0,337.5,0.02,10.8,19.0,"17:06:08",1
"22/10/20","17:20",0.0,19.2,57.7,1019.4,331.0,2.0,3.9,331.6,0.00,10.7,19.2,"17:12:32",1
"22/10/20","17:30",0.0,18.6,60.8,1019.2,314.9,1.5,2.7,317.2,0.00,10.9,19.0,"17:24:56",1
"22/10/20","17:40",0.0,17.8,63.6,1019.4,291.3,1.1,2.4,314.8,0.00,10.9,19.1,"17:35:04",1
"22/10/20","17:50",0.0,17.2,65.7,1019.7,290.3,1.3,2.6,332.0,0.00,10.8,18.9,"17:49:52",1
"22/10/20","18:00",0.0,17.0,66.6,1019.7,325.4,2.0,4.1,336.1,0.00,10.8,19.0,"17:52:56",1
"22/10/20","18:10",0.0,16.6,68.0,1020.1,324.9,1.7,2.7,336.7,0.00,10.7,18.9,"18:03:20",1
"22/10/20","18:20",0.0,16.3,68.9,1020.1,301.5,1.5,2.6,307.0,0.00,10.6,18.7,"18:10:16",1
"22/10/20","18:30",0.0,16.0,70.2,1020.4,278.2,1.2,1.9,286.0,0.00,10.6,18.8,"18:20:08",1
"22/10/20","18:40",0.0,15.6,71.4,1020.4,276.7,1.2,2.1,294.6,0.00,10.5,18.9,"18:39:20",1
"22/10/20","18:50",0.0,15.5,72.0,1020.8,292.3,1.3,2.6,326.9,0.00,10.5,18.7,"18:45:36",1
"22/10/20","19:00",0.0,15.2,72.8,1020.8,268.1,0.7,2.2,353.7,0.00,10.4,18.8,"18:51:36",1
"22/10/20","19:10",0.0,14.8,74.5,1020.8,258.0,1.0,1.7,233.1,0.00,10.4,18.7,"19:02:16",1
"22/10/20","19:20",0.0,14.7,75.6,1020.8,292.3,1.0,1.6,335.9,0.00,10.5,18.9,"19:18:48",1
"22/10/20","19:30",0.0,14.5,76.7,1021.3,292.6,1.0,1.6,323.3,0.00,10.5,18.6,"19:23:28",1
"22/10/20","19:40",0.0,14.2,77.5,1021.1,278.4,0.8,1.7,273.2,0.00,10.4,18.5,"19:33:18",1
"22/10/20","19:50",0.0,14.1,78.8,1021.3,283.3,1.2,2.4,247.6,0.00,10.5,18.5,"19:46:34",1
"22/10/20","20:00",0.0,13.9,79.7,1021.8,278.8,1.2,2.0,251.6,0.00,10.5,18.2,"19:51:34",1
"22/10/20","20:10",0.0,13.7,80.5,1021.5,273.7,1.1,1.8,267.3,0.00,10.4,18.3,"20:07:28",1
"22/10/20","20:20",0.0,13.5,81.3,1021.5,272.4,1.3,1.7,269.2,0.00,10.4,18.2,"20:14:22",1
"22/10/20","20:30",0.0,13.2,82.3,1021.5,282.9,1.5,2.5,272.1,0.00,10.3,18.3,"20:24:28",1
"22/10/20","20:40",0.0,13.1,83.2,1021.3,298.4,1.5,1.7,301.4,0.00,10.4,18.3,"20:35:42",1
"22/10/20","20:50",0.0,12.9,83.9,1021.5,307.9,1.6,2.1,319.3,0.00,10.3,18.1,"20:45:08",1
"22/10/20","21:00",0.0,12.7,84.4,1021.5,293.9,0.7,2.0,305.5,0.00,10.2,18.1,"20:50:34",1
"22/10/20","21:10",0.0,12.2,85.2,1021.8,297.3,1.1,2.2,275.9,0.00,9.8,18.2,"21:08:16",1
"22/10/20","21:20",0.0,12.2,85.8,1021.5,296.3,1.5,2.0,266.0,0.00,9.9,18.1,"21:10:08",1
"22/10/20","21:30",0.0,12.2,86.3,1021.5,286.0,1.3,1.9,295.8,0.00,10.0,18.1,"21:28:34",1
"22/10/20","21:40",0.0,12.5,86.4,1021.8,321.0,2.5,3.6,326.7,0.00,10.3,18.1,"21:35:34",1
"22/10/20","21:50",0.0,12.6,86.3,1022.3,323.1,2.5,4.9,315.9,0.00,10.4,17.9,"21:49:48",1
"22/10/20","22:00",0.0,12.6,86.1,1022.0,323.2,2.3,4.2,327.5,0.00,10.4,17.9,"21:50:58",1
"22/10/20","22:10",0.0,12.4,86.1,1022.3,325.9,2.1,3.2,298.7,0.00,10.2,17.8,"22:08:48",1
"22/10/20","22:20",0.0,12.4,86.2,1022.3,314.8,2.2,3.5,318.2,0.00,10.2,17.8,"22:12:52",1
"22/10/20","22:30",0.0,12.3,86.2,1022.3,314.7,2.2,3.5,325.4,0.00,10.1,17.8,"22:27:32",1
"22/10/20","22:40",0.0,12.1,86.4,1022.5,309.5,2.2,3.2,307.4,0.00,9.9,17.6,"22:35:28",1
"22/10/20","22:50",0.0,12.0,86.6,1022.5,329.9,2.1,3.3,314.5,0.00,9.9,17.7,"22:42:56",1
"22/10/20","23:00",0.0,12.0,86.8,1022.3,330.0,2.0,3.4,337.9,0.00,9.9,17.7,"22:53:00",1
"22/10/20","23:10",0.0,12.0,87.0,1022.0,332.4,2.0,3.7,329.0,0.00,9.9,17.6,"23:03:30",1
"22/10/20","23:20",0.0,12.1,87.0,1022.3,328.5,2.7,4.0,340.5,0.00,10.0,17.4,"23:12:54",1
"22/10/20","23:30",0.0,12.0,86.8,1022.3,309.3,1.7,2.4,324.5,0.00,9.9,17.6,"23:27:06",1
"22/10/20","23:40",0.0,11.6,87.0,1022.3,307.7,1.6,2.4,322.2,0.00,9.6,17.5,"23:33:18",1
"22/10/20","23:50",0.0,11.1,87.4,1022.3,325.7,1.3,1.7,325.3,0.00,9.1,17.7,"23:44:34",1
"22/10/20","24:00",0.0,10.6,87.8,1022.5,304.1,1.1,1.6,325.6,0.00,8.7,17.6,"23:53:20",1
